Weather History for OKBK - November, 2013

Change the Weather History Date:

Friday, November 1, 2013

  Actual Average Record
Temperature  
Mean Temperature 78 °F -  
Max Temperature 86 °F 80 °F - ()
Min Temperature 69 °F 57 °F - ()
Cooling Degree Days 12    
Growing Degree Days 28 (Base 50)    
Moisture  
Dew Point 53 °F    
Average Humidity 42    
Maximum Humidity 68    
Minimum Humidity 21    
Precipitation  
Precipitation 0.00 in 0.02 in - ()
Sea Level Pressure  
Sea Level Pressure 30.01 in    
Wind  
Wind Speed 9 mph ()    
Max Wind Speed 18 mph    
Max Gust Speed -    
Visibility 6.2 miles    
Events      
T = Trace of Precipitation, MM = Missing Value Source: Averaged Metar Reports

Daily Weather History Graph

Daily Weather History Graph

Search for Another Location

Airport or City:

Trip Planner

Search our weather history database for the weather conditions in past years. The results will help you decide how hot, cold, wet, or windy it might be!

Date:

Astronomy

Nov. 01, 2013 Rise Set
Actual Time 6:00 AM AST 5:02 PM AST
Civil Twilight 5:36 AM AST 5:26 PM AST
Nautical Twilight 5:08 AM AST 5:54 PM AST
Astronomical Twilight 4:40 AM AST 6:22 PM AST
Moon 3:38 AM AST (11/1) 3:33 PM AST (11/1)
Length of Visible Light 11h 50m
Length of Day
11h 01m
Waning Crescent, 6% of the Moon is Illuminated
Nov 1
Waning Crescent
Nov 3
New
Nov 10
First Quarter
Nov 17
Full
Nov 25
Last Quarter

Hourly Weather History & Observations

Time (AST) Temp. Heat Index Dew Point Humidity Pressure Visibility Wind Dir Wind Speed Gust Speed Precip Events Conditions
12:00 AM 69.8 °F - 59.0 °F 68% 30.04 in - North 10.4 mph - N/A   Clear
1:00 AM 69.8 °F - 59.0 °F 68% 30.01 in - North 5.8 mph - N/A   Clear
2:00 AM 71.6 °F - 57.2 °F 60% 30.04 in - NW 9.2 mph - N/A   Clear
3:00 AM 71 °F - 53 °F 43% 30.02 in 6 mi North 10.4 mph - -   Mostly Cloudy
3:00 AM 71.6 °F - 53.6 °F 53% 30.04 in - North 10.4 mph - N/A   Clear
4:00 AM 69.8 °F - 42.8 °F 38% 30.04 in - North 6.9 mph - N/A   Clear
5:00 AM 73.4 °F - 50.0 °F 44% 30.04 in - North 12.7 mph - N/A   Clear
6:00 AM 75.2 °F - 50.0 °F 41% 30.01 in - NNE 13.8 mph - N/A   Clear
7:00 AM 75.2 °F - 53.6 °F 47% 30.06 in 6.2 mi NNE 9.2 mph - N/A   Mostly Cloudy
8:00 AM 75.2 °F - 53.6 °F 47% 30.06 in 6.2 mi NE 9.2 mph - N/A   Mostly Cloudy
9:00 AM 76 °F - 54 °F 35% 30.04 in 6 mi NNE 9.2 mph - -   Partly Cloudy
9:00 AM 77.0 °F - 53.6 °F 44% 30.04 in 6.2 mi NNE 9.2 mph - N/A   Mostly Cloudy
10:00 AM 78.8 °F - 55.4 °F 44% 30.04 in 6.2 mi ENE 9.2 mph - N/A   Mostly Cloudy
11:00 AM 84.2 °F 82.8 °F 53.6 °F 35% 30.04 in 6.2 mi ENE 6.9 mph - N/A   Mostly Cloudy
12:00 PM 82.4 °F 81.7 °F 55.4 °F 39% 30.01 in 6.2 mi North 15.0 mph - N/A   Mostly Cloudy
1:00 PM 84.2 °F 82.8 °F 53.6 °F 35% 29.98 in 6.2 mi NE 8.1 mph - N/A   Mostly Cloudy
2:00 PM 86.0 °F - 51.8 °F 31% 29.95 in 6.2 mi NNE 13.8 mph - N/A   Mostly Cloudy
3:00 PM 85 °F - 51 °F 21% 29.97 in 6 mi NNE 13.8 mph - -   Scattered Clouds
3:00 PM 86.0 °F - 51.8 °F 31% 29.98 in 6.2 mi NNE 13.8 mph - N/A   Mostly Cloudy
4:00 PM 84.2 °F - 51.8 °F 33% 29.98 in 6.2 mi NNE 13.8 mph - N/A   Mostly Cloudy
5:00 PM 82.4 °F - 50.0 °F 32% 29.98 in 6.2 mi NNE 13.8 mph - N/A   Mostly Cloudy
6:00 PM 78.8 °F - 51.8 °F 39% 29.98 in 6.2 mi North 18.4 mph - N/A   Mostly Cloudy
7:00 PM 77.0 °F - 53.6 °F 44% 29.98 in 6.2 mi NNE 16.1 mph - N/A   Mostly Cloudy
8:00 PM 77.0 °F - 55.4 °F 47% 29.98 in - NNE 15.0 mph - N/A   Clear
9:00 PM 78 °F - 54 °F 33% 29.98 in 6 mi NE 9.2 mph - -   Mostly Cloudy
9:00 PM 78.8 °F - 53.6 °F 42% 29.98 in - NE 9.2 mph - N/A   Clear
10:00 PM 77.0 °F - 55.4 °F 47% 29.98 in 6.2 mi NNE 10.4 mph - N/A   Mostly Cloudy
11:00 PM 77.0 °F - 55.4 °F 47% 29.98 in 6.2 mi NNE 12.7 mph - N/A   Mostly Cloudy